Weather in Gastello

Russia / Magadan District     61°33′17″N   147°59′49″E
temp.,
°C
wind,
m/s
gust,
m/s
humid.,
%
clouds,
%
prec.,
mm/h
press.,
hPa
HPBL,
m
5 december, sun
sun523:00−39wnw11100100 0.1 10149
02:00−41wnw11100100 0.0 10138
05:00−43w11100100 0.0 10128
08:00−45w1110072 0.0 10118
11:00−45w1110063 0.0 10118
14:00−43w1110054 0.0 10089
17:00−45w1110092 0.0 10108
20:00−43w1110095 0.0 10099
6 december, mon
mon623:00−44w1110080 0.0 10108
02:00−44w119950 0.0 10118
05:00−44w119949 0.0 10128
08:00−44w119948 0.0 10128
11:00−42w119999 0.0 10138
14:00−34nw119457 0.0 100916
17:00−39w119721 0.0 10138
20:00−40w119834 0.0 10158
7 december, tue
tue723:00−41wnw119973 0.0 10168
02:00−40wnw1198100 0.0 10158
05:00−35nw2194100 0.0 101120
08:00−31nnw2292100 0.0 100765
11:00−30nnw2394100 0.0 1005100
14:00−29nnw2391100 0.0 1003165
17:00−28n3499100 0.3 1003164
20:00−28n3499100 0.3 1003166
8 december, wed
wed823:00−28n3499100 0.5 1003166
02:00−28n3498100 0.3 1005186
05:00−28nne3598100 0.4 1006139
08:00−29n4598100 0.1 1009163
11:00−29n4698100 0.2 1012226
14:00−29n469798 0.1 1014282
17:00−33n339974 0.1 101816
20:00−37nnw2210065 0.0 10229
9 december, thu
thu923:00−39nw1110081 0.0 10249
02:00−41wnw1110083 0.0 10268
05:00−42w1110063 0.0 10288
08:00−44w1110059 0.0 10308
11:00−44wsw1110057 0.0 10318
14:00−43wsw1110051 0.0 10308
17:00−44wsw0010055 0.0 10308
20:00−37w119790 0.0 102632